METLOCID,DATE_TIME,AVG_AIRT3M,STDDEV_AIRT3M,MIN_AIRT3M,MAX_AIRT3M,N_AIRT3M,AVG_AIRTDEL3M1,STDDEV_AIRTDEL3M1,MIN_AIRTDEL3M1,MAX_AIRTDEL3M1,N_AIRTDEL3M1,N_COMMENTS
HOEM,11/11/87,-6.72,0,-6.72,-6.72,1,,,,,0,0
HOEM,11/12/87,-8.030833333,2.307601897,-12.62,-4.9,12,,,,,0,0
HOEM,11/13/87,-7.579166667,2.897994474,-12.44,-3.39,12,,,,,0,0
HOEM,11/14/87,-6.326666667,2.881906986,-11.03,-0.61,12,,,,,0,0
HOEM,11/15/87,-5.953333333,2.888407341,-9.58,-1.11,12,,,,,0,0
HOEM,11/16/87,-4.976666667,1.715545677,-6.81,-1.11,12,,,,,0,0
HOEM,11/17/87,-8.295,1.138024604,-10.44,-6.8,12,,,,,0,0
HOEM,11/18/87,-8.0925,2.051288398,-10.61,-4.49,12,,,,,0,0
HOEM,11/19/87,-7.983333333,2.580483863,-11.92,-4.36,12,,,,,0,0
HOEM,11/20/87,-5.2575,2.522701024,-8.62,-2.56,12,,,,,0,0
HOEM,11/21/87,-2.623333333,2.890081261,-6.8,1.25,12,,,,,0,0
HOEM,11/22/87,-2.248333333,1.690706325,-4.69,0.31,12,,,,,0,0
HOEM,11/23/87,-2.85,1.556762375,-5.23,-0.94,12,,,,,0,0
HOEM,11/24/87,-2.866666667,1.922934941,-6.72,0.12,12,,,,,0,0
HOEM,11/25/87,-3.5175,1.905952995,-7.02,-0.67,12,,,,,0,0
HOEM,11/26/87,-2.145,1.576748669,-6.05,-0.37,12,,,,,0,0
HOEM,11/27/87,-0.859166667,1.538992931,-4.17,1.44,12,,,,,0,0
HOEM,11/28/87,-2.003333333,1.138917615,-4.64,-0.73,12,,,,,0,0
HOEM,11/29/87,-2.04,2.244447695,-5.54,3.19,12,,,,,0,0
HOEM,11/30/87,-2.495,1.65285153,-4.74,1.78,12,,,,,0,0
HOEM,12/1/87,-1.545833333,0.972124743,-3.08,0.47,12,,,,,0,0
HOEM,12/2/87,0.039166667,1.757112602,-2.27,3.14,12,,,,,0,0
HOEM,12/3/87,1.470833333,1.287904982,-0.7,3.13,12,,,,,0,0
HOEM,12/4/87,0.53,1.112736185,-1.23,2.59,12,,,,,0,0
HOEM,12/5/87,1.430833333,0.894360699,-1.06,2.36,12,,,,,0,0
HOEM,12/6/87,1.446666667,2.056728794,-2.57,4.6,12,,,,,0,0
HOEM,12/7/87,1.398333333,1.520985526,-1.2,3.75,12,,,,,0,0
HOEM,12/8/87,1.095,1.073333804,-0.4,3.01,12,,,,,0,0
HOEM,12/9/87,2.165,1.719812358,-0.31,4.65,12,,,,,0,0
HOEM,12/10/87,1.901666667,1.864500095,-0.26,5.88,12,,,,,0,0
HOEM,12/11/87,2.986666667,2.203127254,-1.18,6.46,12,,,,,0,0
HOEM,12/12/87,1.731666667,1.480791148,-0.84,4.16,12,,,,,0,0
HOEM,12/13/87,-2.263333333,1.035324572,-3.68,-0.9,12,,,,,0,0
HOEM,12/14/87,-2.880833333,1.289738933,-5.09,-1.33,12,,,,,0,0
HOEM,12/15/87,-4.021666667,1.49179473,-5.8,-1.31,12,,,,,0,0
HOEM,12/16/87,0.0325,0.80649776,-1.6,1.14,12,,,,,0,0
HOEM,12/17/87,-0.4725,2.169977482,-4.3,1.6,12,,,,,0,0
HOEM,12/18/87,-0.863333333,1.955808753,-4.21,1.35,12,,,,,0,0
HOEM,12/19/87,1.635833333,2.057679445,-1.41,5.15,12,,,,,0,0
HOEM,12/20/87,3.205,1.796635745,0.39,6.52,12,,,,,0,0
HOEM,12/21/87,3.265833333,1.175464769,1.43,5.66,12,,,,,0,0
HOEM,12/22/87,0.355833333,1.200927356,-0.92,2.91,12,,,,,0,0
HOEM,12/23/87,1.1625,1.393537846,-0.49,3.52,12,,,,,0,0
HOEM,12/24/87,-0.564166667,1.861067427,-3.02,2.33,12,,,,,0,0
HOEM,12/25/87,-1.325,0.991403963,-2.65,0.7,12,,,,,0,0
HOEM,12/26/87,-0.325833333,1.601853803,-2.94,1.27,12,,,,,0,0
HOEM,12/27/87,0.370833333,1.066587237,-1,2.16,12,,,,,0,0
HOEM,12/28/87,-0.56,1.467248507,-3.09,1.57,12,,,,,0,0
HOEM,12/29/87,-3.475833333,0.536647139,-4.18,-2.23,12,,,,,0,0
HOEM,12/30/87,-1.898333333,1.238333435,-3.45,0.17,12,,,,,0,0
HOEM,12/31/87,-2.434166667,1.468248544,-4.77,0.2,12,,,,,0,0
HOEM,1/1/88,-0.569166667,2.608836238,-3.64,3.49,12,,,,,0,0
HOEM,1/2/88,1.3275,2.082507776,-2.23,4.39,12,,,,,0,0
HOEM,1/3/88,3.586666667,1.354268225,1.49,6.66,12,,,,,0,0
HOEM,1/4/88,0.850833333,1.446924377,-0.82,3.56,12,,,,,0,0
HOEM,1/5/88,-0.14,1.04875684,-1.78,1.3,12,,,,,0,0
HOEM,1/6/88,-2.229166667,0.876101471,-3.41,-1.06,12,,,,,0,0
HOEM,1/7/88,-1.255833333,1.635306245,-3.83,1.14,12,,,,,0,0
HOEM,1/8/88,0.074166667,1.431041949,-1.9,2.93,12,,,,,0,0
HOEM,1/9/88,-0.2875,1.430086615,-2.23,1.94,12,,,,,0,0
HOEM,1/10/88,-3.3525,1.384131661,-5.41,-1.6,12,,,,,0,0
HOEM,1/11/88,-3.148333333,2.200412496,-6.07,1.32,12,,,,,0,0
HOEM,1/12/88,-2.145833333,1.415674965,-4.46,-0.48,12,,,,,0,0
HOEM,1/13/88,-1.6125,1.282618947,-3.85,0.31,12,,,,,0,0
HOEM,1/14/88,-1.634166667,1.53812435,-4.27,1.02,12,,,,,0,0
HOEM,1/15/88,-2.005,0.581244746,-2.64,-0.86,12,,,,,0,0
HOEM,1/16/88,-0.3025,2.015138727,-3.67,2.35,12,,,,,0,0
HOEM,1/17/88,0.6675,1.268464533,-1.76,2.51,12,,,,,0,0
HOEM,1/18/88,0.725,2.405680777,-3.31,4.46,12,,,,,0,0
HOEM,1/19/88,1.401666667,1.861362323,-1.46,4.02,12,,,,,0,0
HOEM,1/20/88,0.72,2.433713959,-1.99,5.33,12,,,,,0,0
HOEM,1/21/88,1.158333333,1.840843845,-1.4,4.41,12,,,,,0,0
HOEM,1/22/88,0.755833333,2.320824533,-2.62,5.11,12,,,,,0,0
HOEM,1/23/88,-1.273333333,2.073465844,-4.85,2.13,12,,,,,0,0
HOEM,1/24/88,-0.858333333,2.185821391,-3.85,3.08,12,,,,,0,0
HOEM,1/25/88,-1.089166667,1.971674223,-3.77,2.71,12,,,,,0,0
HOEM,1/26/88,0.8175,2.624645864,-3.22,5.05,12,,,,,0,0
HOEM,1/27/88,-0.1575,1.357639161,-2.01,2.48,12,,,,,0,0
HOEM,1/28/88,-1.580833333,1.505538009,-3.51,0.81,12,,,,,0,0
HOEM,1/29/88,-0.8625,2.085957923,-4.08,1.98,12,,,,,0,0
HOEM,1/30/88,-1.970833333,1.718606509,-4.54,0.84,12,,,,,0,0
HOEM,1/31/88,-4.898333333,1.270546291,-6.23,-2.73,12,,,,,0,0
HOEM,2/1/88,-0.504166667,3.80476605,-5.18,5.41,12,,,,,0,0
HOEM,2/2/88,0.1825,4.282140767,-4.74,7.42,12,,,,,0,0
HOEM,2/3/88,-1.413333333,4.267433406,-7.16,4.33,12,,,,,0,0
HOEM,2/4/88,-1.325,6.221206402,-10.71,9.91,12,,,,,0,0
HOEM,2/5/88,-2.149166667,3.385510458,-8.4,1.48,12,,,,,0,0
HOEM,2/6/88,-2.266666667,3.504870205,-8.22,2.73,12,,,,,0,0
HOEM,2/7/88,-2.286666667,3.940395304,-8.43,3.66,12,,,,,0,0
HOEM,2/8/88,-2.6975,4.706311285,-10.57,3.92,12,,,,,0,0
HOEM,2/9/88,-3.78,3.607293118,-10.35,0.99,12,,,,,0,0
HOEM,2/10/88,-3.120833333,4.17596904,-9.86,3.12,12,,,,,0,0
HOEM,2/11/88,-5.551666667,3.582388318,-10.11,0.58,12,,,,,0,0
HOEM,2/12/88,-7.8325,0.764783095,-8.88,-6.46,12,,,,,0,0
HOEM,2/13/88,-7.223333333,1.715042185,-9.52,-4.95,12,,,,,0,0
HOEM,2/14/88,-4.875,1.993482563,-7.43,-1.2,12,,,,,0,0
HOEM,2/15/88,-7.150833333,2.971517697,-10.53,-1.34,12,,,,,0,0
HOEM,2/16/88,-8.618333333,3.433987434,-12.8,-2.63,12,,,,,0,0
HOEM,2/17/88,-9.148333333,3.951466548,-14.01,-2.1,12,,,,,0,0
HOEM,2/18/88,-10.63583333,2.904440044,-14.9,-4.59,12,,,,,0,0
HOEM,2/19/88,-11.33083333,4.156227438,-16.13,-3.93,12,,,,,0,0
HOEM,2/20/88,-12.76833333,2.336083877,-18.07,-10.46,12,,,,,0,0
HOEM,2/21/88,-13.585,2.700988035,-18.14,-9.42,12,,,,,0,0
HOEM,2/22/88,-13.31333333,1.570103259,-15.88,-11.05,12,,,,,0,0
HOEM,2/23/88,-16.75166667,4.283999477,-21.54,-9.47,12,,,,,0,0
HOEM,2/24/88,-12.59666667,3.568428056,-19.07,-5.47,12,,,,,0,0
HOEM,2/25/88,-15.76416667,4.038506606,-21.01,-7.35,12,,,,,0,0
HOEM,2/26/88,-14.915,4.948716087,-19.81,-5.22,12,,,,,0,0
HOEM,2/27/88,-16.5175,3.596700824,-20,-9.34,12,,,,,0,0
HOEM,2/28/88,-17.165,2.331708309,-20.71,-14.62,12,,,,,0,0
HOEM,2/29/88,-15.785,3.278490506,-20.18,-7.51,12,,,,,0,0
HOEM,3/1/88,-16.9875,4.213219725,-22.69,-12.82,12,,,,,0,0
HOEM,3/2/88,-20.1325,3.07819051,-24.81,-14.81,12,,,,,0,0
HOEM,3/3/88,-23.97666667,3.333614837,-27.68,-17.35,12,,,,,0,0
HOEM,3/4/88,-21.62416667,4.397779312,-26.08,-13.04,12,,,,,0,0
HOEM,3/5/88,-18.8825,3.167158534,-23.25,-12.69,12,,,,,0,0
HOEM,3/6/88,-24.25,2.658164096,-27.14,-18.64,12,,,,,0,0
HOEM,3/7/88,-23.10666667,4.304305104,-27.29,-13.75,12,,,,,0,0
HOEM,3/8/88,-24.49333333,2.865279086,-28.05,-19.16,12,,,,,0,0
HOEM,3/9/88,-24.585,3.418999056,-27.57,-16.99,12,,,,,0,0
HOEM,3/10/88,-21.45583333,3.335231921,-25.89,-15.09,12,,,,,0,0
HOEM,3/11/88,-24.18833333,3.470100426,-28.77,-18.16,12,,,,,0,0
HOEM,3/12/88,-24.02333333,3.790877407,-28.1,-16.57,12,,,,,0,0
HOEM,3/13/88,-25.12083333,3.628632245,-29.39,-19.71,12,,,,,0,0
HOEM,3/14/88,-16.01083333,4.90239915,-21.57,-9.36,12,,,,,0,0
HOEM,3/15/88,-22.92833333,2.258550755,-25.75,-18.5,12,,,,,0,0
HOEM,3/16/88,-26.66083333,1.706327573,-29.75,-24.29,12,,,,,0,0
HOEM,3/17/88,-24.48333333,6.633776291,-32.29,-15.77,12,,,,,0,0
HOEM,3/18/88,-27.58166667,2.095483599,-30.07,-22.83,12,,,,,0,0
HOEM,3/19/88,-26.95333333,1.836480494,-29.92,-23.71,12,,,,,0,0
HOEM,3/20/88,-26.76666667,1.532806893,-29.03,-24.96,12,,,,,0,0
HOEM,3/21/88,-22.32333333,4.645074289,-26.96,-12.76,12,,,,,0,0
HOEM,3/22/88,-14.34666667,2.02314936,-17.59,-11.88,12,,,,,0,0
HOEM,3/23/88,-13.9575,1.978374562,-17.04,-10.05,12,,,,,0,0
HOEM,3/24/88,-14.15083333,2.625073015,-18.18,-11.3,12,,,,,0,0
HOEM,3/25/88,-16.6075,1.506857808,-18.75,-14.53,12,,,,,0,0
HOEM,3/26/88,-12.46,1.539752046,-14.45,-10.02,12,,,,,0,0
HOEM,3/27/88,-19.50333333,2.670578192,-22.09,-14.82,12,,,,,0,0
HOEM,3/28/88,-20.47666667,2.522117917,-24.78,-15.84,12,,,,,0,0
HOEM,3/29/88,-16.04416667,2.15275493,-20.77,-12.76,12,,,,,0,0
HOEM,3/30/88,-17.8175,4.41111432,-23.73,-11.98,12,,,,,0,0
HOEM,3/31/88,-11.91333333,4.898215507,-23.72,-7.15,12,,,,,0,0
HOEM,4/1/88,-13.98833333,1.795149188,-16.59,-11.22,12,,,,,0,0
HOEM,4/2/88,-18.33083333,0.876858632,-20.43,-17.14,12,,,,,0,0
HOEM,4/3/88,-19.00083333,1.843689277,-22.65,-16.21,12,,,,,0,0
HOEM,4/4/88,-23.74666667,1.115537647,-25.58,-22.1,12,,,,,0,0
HOEM,4/5/88,-25.5275,1.214908339,-27.36,-23.12,12,,,,,0,0
HOEM,4/6/88,-24.79166667,1.261462595,-27.34,-23.07,12,,,,,0,0
HOEM,4/7/88,-27.38583333,0.49584562,-28.36,-26.75,12,,,,,0,0
HOEM,4/8/88,-29.09833333,0.544189695,-30.06,-28.31,12,,,,,0,0
HOEM,4/9/88,-26.6975,1.937332397,-30,-24.11,12,,,,,0,0
HOEM,4/10/88,-23.14583333,1.524112012,-25.54,-21.44,12,,,,,0,0
HOEM,4/11/88,-26.02916667,1.959561446,-28.52,-21.98,12,,,,,0,0
HOEM,4/12/88,-29.13333333,1.133845695,-30.45,-27.28,12,,,,,0,0
HOEM,4/13/88,-32.58916667,0.714492297,-33.62,-31.37,12,,,,,0,0
HOEM,4/14/88,-35.02833333,1.504199173,-36.65,-31.66,12,,,,,0,0
HOEM,4/15/88,-33.1425,0.889393307,-34.42,-31.66,12,,,,,0,0
HOEM,4/16/88,-32.895,1.511684792,-35.31,-29.26,12,,,,,0,0
HOEM,4/17/88,-28.29916667,3.682401534,-32.27,-21.93,12,,,,,0,0
HOEM,4/18/88,-32.03916667,0.67249141,-33.11,-31.11,12,,,,,0,0
HOEM,4/19/88,-27.20666667,4.102758126,-33.52,-20.38,12,,,,,0,0
HOEM,4/20/88,-21.23416667,4.552309021,-27.15,-13.68,12,,,,,0,0
HOEM,4/21/88,-15.6025,1.643085374,-17.83,-13.56,12,,,,,0,0
HOEM,4/22/88,-10.30166667,2.094789351,-13.35,-6.9,12,,,,,0,0
HOEM,4/23/88,-12.10333333,2.241465971,-17.73,-9.35,12,,,,,0,0
HOEM,4/24/88,-17.7925,5.551060709,-23.95,-10.5,12,,,,,0,0
HOEM,4/25/88,-18.445,6.807447125,-25.95,-10.32,12,,,,,0,0
HOEM,4/26/88,-9.664166667,2.590164819,-13.13,-5.51,12,,,,,0,0
HOEM,4/27/88,-14.72166667,2.705797927,-18.51,-11.23,12,,,,,0,0
HOEM,4/28/88,-11.64,2.799954545,-15.69,-8.53,12,,,,,0,0
HOEM,4/29/88,-14.6875,2.965774849,-20.22,-10.88,12,,,,,0,0
HOEM,4/30/88,-14.94,1.818600861,-18.84,-12.62,12,,,,,0,0
HOEM,5/1/88,-14.59083333,1.074391653,-17.65,-13.58,12,,,,,0,0
HOEM,5/2/88,-20.72583333,1.948684677,-23.9,-18.47,12,,,,,0,0
HOEM,5/3/88,-21.7375,2.046287659,-24.63,-18.69,12,,,,,0,0
HOEM,5/4/88,-25.16083333,2.99113982,-28.72,-19.97,12,,,,,0,0
HOEM,5/5/88,-29.10333333,0.741979335,-30.18,-27.68,12,,,,,0,0
HOEM,5/6/88,-31.0425,0.50423885,-32.19,-30.57,12,,,,,0,0
HOEM,5/7/88,-32.76416667,1.274230308,-33.79,-29.91,12,,,,,0,0
HOEM,5/8/88,-29.44666667,2.2065536,-32.51,-25.4,12,,,,,0,0
HOEM,5/9/88,-33.37083333,0.614942101,-34.49,-32.72,12,,,,,0,0
HOEM,5/10/88,-29.09,5.33688537,-35.27,-21.48,12,,,,,0,0
HOEM,5/11/88,-24.51583333,0.871909694,-25.87,-22.78,12,,,,,0,0
HOEM,5/12/88,-24.12083333,1.213046191,-25.64,-22.39,12,,,,,0,0
HOEM,5/13/88,-24.4725,1.803028387,-27.55,-21.75,12,,,,,0,0
HOEM,5/14/88,-23.50083333,1.663345251,-26.8,-21.61,12,,,,,0,0
HOEM,5/15/88,-28.29666667,2.366271841,-31.94,-25.17,12,,,,,0,0
HOEM,5/16/88,-18.53,6.687710574,-30.33,-11.94,12,,,,,0,0
HOEM,5/17/88,-11.83833333,1.946684049,-15.62,-9.88,12,,,,,0,0
HOEM,5/18/88,-21.77416667,3.606833056,-27.03,-16.44,12,,,,,0,0
HOEM,5/19/88,-23.48083333,1.849287127,-26.07,-20.93,12,,,,,0,0
HOEM,5/20/88,-18.82333333,2.851310172,-24.36,-16.5,12,,,,,0,0
HOEM,5/21/88,-15.6025,2.659778272,-20.43,-13.86,12,,,,,0,0
HOEM,5/22/88,-13.21833333,0.617440955,-14.2,-12.26,12,,,,,0,0
HOEM,5/23/88,-16.0425,3.365396438,-19.87,-11.06,12,,,,,0,0
HOEM,5/24/88,-14.48166667,1.748349005,-16.77,-11.52,12,,,,,0,0
HOEM,5/25/88,-16.29583333,3.564071875,-20.19,-9.84,12,,,,,0,0
HOEM,5/26/88,-13.22833333,3.754814687,-20.59,-8.24,12,,,,,0,0
HOEM,5/27/88,-14.98,4.428560201,-19.04,-8.06,12,,,,,0,0
HOEM,5/28/88,-18.57166667,1.437363959,-21.66,-17.21,12,,,,,0,0
HOEM,5/29/88,-25.11,1.55163843,-27.86,-23.15,12,,,,,0,0
HOEM,5/30/88,-28.67083333,1.184048973,-29.82,-25.7,12,,,,,0,0
HOEM,5/31/88,-24.4875,2.223458097,-27.54,-21.9,12,,,,,0,0
HOEM,6/1/88,-30.51916667,1.582020907,-33.02,-27.95,12,,,,,0,0
HOEM,6/2/88,-31.73833333,0.52142869,-32.61,-30.99,12,,,,,0,0
HOEM,6/3/88,-30.75666667,3.156765702,-33.96,-23.26,12,,,,,0,0
HOEM,6/4/88,-20.46666667,2.391486161,-23.15,-15.79,12,,,,,0,0
HOEM,6/5/88,-16.71666667,2.591318841,-20.65,-12.64,12,,,,,0,0
HOEM,6/6/88,-17.47083333,2.417344367,-20.95,-14.5,12,,,,,0,0
HOEM,6/7/88,-19.33083333,3.123798557,-24.74,-15.55,12,,,,,0,0
HOEM,6/8/88,-22.94833333,4.611964348,-28.24,-17.59,12,,,,,0,0
HOEM,6/9/88,-12.775,4.419815916,-18.66,-7.85,12,,,,,0,0
HOEM,6/10/88,-18.9275,6.540809131,-26.93,-7.59,12,,,,,0,0
HOEM,6/11/88,-22.615,3.196391431,-27.65,-18.18,12,,,,,0,0
HOEM,6/12/88,-19.19083333,3.363916706,-26.01,-15.58,12,,,,,0,0
HOEM,6/13/88,-28.9775,2.110015618,-31.91,-25.92,12,,,,,0,0
HOEM,6/14/88,-28.07833333,7.454639597,-33.18,-14.27,12,,,,,0,0
HOEM,6/15/88,-15.87583333,3.619019099,-19.47,-8.7,12,,,,,0,0
HOEM,6/16/88,-20.555,1.090241841,-22.59,-18.93,12,,,,,0,0
HOEM,6/17/88,-19.27166667,4.108365818,-23.83,-12.58,12,,,,,0,0
HOEM,6/18/88,-19.20166667,4.578862172,-25.41,-13.09,12,,,,,0,0
HOEM,6/19/88,-11.56583333,1.928779446,-14.77,-8.62,12,,,,,0,0
HOEM,6/20/88,-11.23083333,1.979666906,-14.89,-9.46,12,,,,,0,0
HOEM,6/21/88,-14.29166667,3.811031436,-20.44,-10.04,12,,,,,0,0
HOEM,6/22/88,-24.65,1.619152416,-27.53,-21.54,12,,,,,0,0
HOEM,6/23/88,-27.67333333,0.830863005,-28.57,-26.13,12,,,,,0,0
HOEM,6/24/88,-29.3,1.127394422,-30.57,-27.19,12,,,,,0,0
HOEM,6/25/88,-32.1675,0.670415407,-33.33,-30.86,12,,,,,0,0
HOEM,6/26/88,-33.27666667,0.768497156,-34.16,-31.72,12,,,,,0,0
HOEM,6/27/88,-35.40833333,0.572329106,-36.14,-34.47,12,,,,,0,0
HOEM,6/28/88,-32.52416667,1.135425097,-34.21,-30.41,12,,,,,0,0
HOEM,6/29/88,-18.06916667,4.728696646,-30.29,-13.16,12,,,,,0,0
HOEM,6/30/88,-12.1175,1.88794802,-14.76,-9.41,12,,,,,0,0
HOEM,7/1/88,-16.80083333,4.398207193,-22.48,-10.11,12,,,,,0,0
HOEM,7/2/88,-24.155,0.968142551,-25.64,-21.9,12,,,,,0,0
HOEM,7/3/88,-26.92083333,1.581791035,-28.86,-24.5,12,,,,,0,0
HOEM,7/4/88,-25.755,0.666121747,-26.82,-24.79,12,,,,,0,0
HOEM,7/5/88,-20.27583333,5.149355579,-24.75,-11.7,12,,,,,0,0
HOEM,7/6/88,-23.815,4.865426264,-29.39,-15.94,12,,,,,0,0
HOEM,7/7/88,-21.99666667,2.896657426,-30.15,-19.31,12,,,,,0,0
HOEM,7/8/88,-23.99416667,1.040117636,-25.47,-22.15,12,,,,,0,0
HOEM,7/9/88,-24.83166667,0.754824884,-26.28,-23.91,12,,,,,0,0
HOEM,7/10/88,-23.46333333,4.122940992,-28.18,-16.44,12,,,,,0,0
HOEM,7/11/88,-23.68,3.460346803,-29,-15.83,12,,,,,0,0
HOEM,7/12/88,-30.89583333,0.604023755,-31.68,-29.89,12,,,,,0,0
HOEM,7/13/88,-24.30083333,9.89225267,-33.67,-11.23,12,,,,,0,0
HOEM,7/14/88,-13.15166667,4.089585072,-22.05,-8.94,12,,,,,0,0
HOEM,7/15/88,-25.0975,2.73884556,-28.11,-18.23,12,,,,,0,0
HOEM,7/16/88,-26.01,2.13429997,-28.37,-20.71,12,,,,,0,0
HOEM,7/17/88,-27.04083333,1.226120699,-29.33,-25.43,12,,,,,0,0
HOEM,7/18/88,-16.57166667,9.070856262,-29.34,-4.86,12,,,,,0,0
HOEM,7/19/88,-27.74583333,2.722273309,-32.63,-24.98,12,,,,,0,0
HOEM,7/20/88,-33.0475,0.828691466,-34.68,-31.74,12,,,,,0,0
HOEM,7/21/88,-29.7175,3.703409056,-35.39,-24.45,12,,,,,0,0
HOEM,7/22/88,-32.83166667,2.867278828,-36.19,-27.39,12,,,,,0,0
HOEM,7/23/88,-30.7775,3.502394311,-34.83,-21.6,12,,,,,0,0
HOEM,7/24/88,-35.57333333,1.589959024,-37.69,-32.81,12,,,,,0,0
HOEM,7/25/88,-34.62333333,1.632384387,-37.46,-32.54,12,,,,,0,0
HOEM,7/26/88,-35.44416667,2.648874404,-38.54,-30.53,12,,,,,0,0
HOEM,7/27/88,-37.20083333,1.199207756,-39.43,-35.84,12,,,,,0,0
HOEM,7/28/88,-35.39416667,1.610383683,-38.04,-33.91,12,,,,,0,0
HOEM,7/29/88,-34.6475,1.083429949,-36.4,-33.09,12,,,,,0,0
HOEM,7/30/88,-32.405,8.130934756,-38.51,-18.47,12,,,,,0,0
HOEM,7/31/88,-17.25833333,2.224135515,-21.97,-14.55,12,,,,,0,0
HOEM,8/1/88,-18.72333333,2.536294123,-22.34,-13.43,12,,,,,0,0
HOEM,8/2/88,-22.345,2.835298605,-25.44,-17.98,12,,,,,0,0
HOEM,8/3/88,-27.2075,1.210267626,-29.16,-25.45,12,,,,,0,0
HOEM,8/4/88,-30.71333333,0.707727905,-31.45,-28.98,12,,,,,0,0
HOEM,8/5/88,-28.89666667,2.826759575,-31.68,-24.38,12,,,,,0,0
HOEM,8/6/88,-24.45583333,2.129312558,-27.33,-21.57,12,,,,,0,0
HOEM,8/7/88,-22.46333333,2.018362673,-25.1,-18.93,12,,,,,0,0
HOEM,8/8/88,-30.59166667,2.96784842,-34.17,-24.96,12,,,,,0,0
HOEM,8/9/88,-34.73166667,1.836136425,-36.07,-29.36,12,,,,,0,0
HOEM,8/10/88,-18.94,2.150610907,-21.29,-15.19,12,,,,,0,0
HOEM,8/11/88,-15.21916667,0.483424495,-15.95,-14.41,12,,,,,0,0
HOEM,8/12/88,-17.425,2.77253904,-21.3,-13.32,12,,,,,0,0
HOEM,8/13/88,-21.95916667,2.718406814,-26.79,-18.22,12,,,,,0,0
HOEM,8/14/88,-19.14333333,1.187520973,-21.49,-17.08,12,,,,,0,0
HOEM,8/15/88,-20.42666667,2.696278018,-26.44,-17.15,12,,,,,0,0
HOEM,8/16/88,-17.495,2.618995297,-20.97,-13.86,12,,,,,0,0
HOEM,8/17/88,-24.505,3.446153323,-28.9,-16.6,12,,,,,0,0
HOEM,8/18/88,-15.62916667,6.012471067,-28.56,-10.43,12,,,,,0,0
HOEM,8/19/88,-8.223333333,1.457003983,-10.76,-6.44,12,,,,,0,0
HOEM,8/20/88,-10.39166667,3.175628308,-16.52,-7.62,12,,,,,0,0
HOEM,8/21/88,-11.44333333,3.052975697,-17.56,-8.15,12,,,,,0,0
HOEM,8/22/88,-13.16416667,1.802349267,-17.93,-11.18,12,,,,,0,0
HOEM,8/23/88,-23.6075,2.408632675,-26.44,-19.42,12,,,,,0,0
HOEM,8/24/88,-24.82333333,2.854913892,-27.74,-18.27,12,,,,,0,0
HOEM,8/25/88,-23.7975,3.518732016,-28.03,-18.24,12,,,,,0,0
HOEM,8/26/88,-15.645,2.522932997,-19.11,-12.01,12,,,,,0,0
HOEM,8/27/88,-19.75583333,6.387351789,-24.99,-4.98,12,,,,,0,0
HOEM,8/28/88,-3.915833333,1.353987098,-5.95,-1.93,12,,,,,0,0
HOEM,8/29/88,-7.69,4.450836489,-15.84,-3.24,12,,,,,0,0
HOEM,8/30/88,-9.158333333,3.520257825,-17.62,-6.15,12,,,,,0,0
HOEM,8/31/88,-10.12416667,3.445630852,-16.16,-7.51,12,,,,,0,0
HOEM,9/1/88,-15.08416667,2.889011968,-19.91,-11.36,12,,,,,0,0
HOEM,9/2/88,-13.345,2.08817232,-15.6,-10.25,12,,,,,0,0
HOEM,9/3/88,-14.93166667,1.681048554,-17.27,-12.96,12,,,,,0,0
HOEM,9/4/88,-21.85666667,2.58431047,-25.94,-17.3,12,,,,,0,0
HOEM,9/5/88,-25.29166667,2.641775688,-27.8,-19.84,12,,,,,0,0
HOEM,9/6/88,-29.60666667,1.29928885,-31.56,-27.46,12,,,,,0,0
HOEM,9/7/88,-28.75166667,1.046030013,-30.35,-26.78,12,,,,,0,0
HOEM,9/8/88,-23.95166667,1.93972741,-26.27,-20.92,12,,,,,0,0
HOEM,9/9/88,-23.72583333,0.661011048,-24.91,-22.55,12,,,,,0,0
HOEM,9/10/88,-25.98666667,2.082888437,-29.62,-23.46,12,,,,,0,0
HOEM,9/11/88,-32.48083333,0.773345252,-33.61,-31.38,12,,,,,0,0
HOEM,9/12/88,-33.18416667,1.116394019,-34.43,-30.91,12,,,,,0,0
HOEM,9/13/88,-31.57833333,2.724030548,-35.17,-26.53,12,,,,,0,0
HOEM,9/14/88,-28.63083333,2.599281223,-31.1,-22.14,12,,,,,0,0
HOEM,9/15/88,-22.79333333,8.686995854,-30.37,-8.92,12,,,,,0,0
HOEM,9/16/88,-27.505,0.874689555,-29.47,-26.43,12,,,,,0,0
HOEM,9/17/88,-24.58,6.144465359,-33.36,-15.36,12,,,,,0,0
HOEM,9/18/88,-16.975,5.524871862,-23.23,-9.46,12,,,,,0,0
HOEM,9/19/88,-20.48166667,4.327703219,-24.89,-11.67,12,,,,,0,0
HOEM,9/20/88,-23.19083333,2.046027007,-26.76,-19.65,12,,,,,0,0
HOEM,9/21/88,-23.96,3.212583214,-28.42,-19.09,12,,,,,0,0
HOEM,9/22/88,-24.37083333,1.570821779,-27.38,-22.01,12,,,,,0,0
HOEM,9/23/88,-24.85333333,6.277075656,-31.59,-13.7,12,,,,,0,0
HOEM,9/24/88,-13.605,2.725440748,-18.07,-9.48,12,,,,,0,0
HOEM,9/25/88,-14.43416667,3.520045088,-19.66,-9.07,12,,,,,0,0
HOEM,9/26/88,-19.17333333,2.243229544,-23.4,-16.71,12,,,,,0,0
HOEM,9/27/88,-21.54916667,1.912168965,-24.6,-19.13,12,,,,,0,0
HOEM,9/28/88,-18.6975,2.374172105,-22.35,-14.94,12,,,,,0,0
HOEM,9/29/88,-20.61416667,3.504413992,-24.8,-14.09,12,,,,,0,0
HOEM,9/30/88,-13.29333333,2.076230559,-15.92,-9.77,12,,,,,0,0
HOEM,10/1/88,-7.755833333,2.797116887,-12.8,-4.71,12,,,,,0,0
HOEM,10/2/88,-12.01583333,2.153595127,-16.68,-8.46,12,,,,,0,0
HOEM,10/3/88,-13.725,5.578940108,-19.22,-3.47,12,,,,,0,0
HOEM,10/4/88,-23.43,2.295465887,-26.55,-18.63,12,,,,,0,0
HOEM,10/5/88,-21.85416667,3.640685396,-27.58,-17.04,12,,,,,0,0
HOEM,10/6/88,-19.15333333,2.544424683,-23.08,-15.03,12,,,,,0,0
HOEM,10/7/88,-22.475,2.8986972,-25.58,-16.47,12,,,,,0,0
HOEM,10/8/88,-26.58583333,1.440495233,-29,-23.96,12,,,,,0,0
HOEM,10/9/88,-26.05666667,4.117729589,-30.22,-18.3,12,,,,,0,0
HOEM,10/10/88,-17.70166667,6.757401105,-28.43,-9.34,12,,,,,0,0
HOEM,10/11/88,-8.769166667,6.184606195,-16.93,-2,12,,,,,0,0
HOEM,10/12/88,-6.725,2.320856033,-11.85,-3.83,12,,,,,0,0
HOEM,10/13/88,-7.879166667,1.872725085,-10.41,-5.37,12,,,,,0,0
HOEM,10/14/88,-7.75,1.340115327,-9.78,-5.7,12,,,,,0,0
HOEM,10/15/88,-8.105833333,2.620608737,-11.67,-4.57,12,,,,,0,0
HOEM,10/16/88,-9.473333333,2.97391182,-13.74,-5.94,12,,,,,0,0
HOEM,10/17/88,-10.64416667,3.335479953,-14.16,-3.47,12,,,,,0,0
HOEM,10/18/88,-13.13916667,3.616981309,-18.37,-7.62,12,,,,,0,0
HOEM,10/19/88,-7.276666667,3.155051745,-14.03,-3.4,12,,,,,0,0
HOEM,10/20/88,-8.509166667,1.821090874,-12.2,-5.79,12,,,,,0,0
HOEM,10/21/88,-7.698333333,3.243989781,-14.44,-4.81,12,,,,,0,0
HOEM,10/22/88,-4.7575,2.017496761,-7.86,-0.61,12,,,,,0,0
HOEM,10/23/88,-6.7275,1.211048569,-8.4,-4.58,12,,,,,0,0
HOEM,10/24/88,-8.51,2.166643823,-11.61,-5.06,12,,,,,0,0
HOEM,10/25/88,-8.481666667,3.894734985,-13.24,-1.95,12,,,,,0,0
HOEM,10/26/88,-8.675,4.077634118,-15.15,-4.3,12,,,,,0,0
HOEM,10/27/88,-6.771666667,1.616206745,-10,-3.98,12,,,,,0,0
HOEM,10/28/88,-6.771666667,3.760180927,-11.19,-0.2,12,,,,,0,0
HOEM,10/29/88,-8.445,2.448485617,-11.09,-3.74,12,,,,,0,0
HOEM,10/30/88,-10.56666667,4.028713608,-15.72,-3.35,12,,,,,0,0
HOEM,10/31/88,-11.6425,3.501285803,-17.51,-6.19,12,,,,,0,0
HOEM,11/1/88,-9.984166667,2.598291251,-13.81,-5.69,12,,,,,0,0
HOEM,11/2/88,-8.74,3.694684142,-12.85,-1.64,12,,,,,0,0
HOEM,11/3/88,-13.35916667,2.242561272,-17.9,-11.2,12,,,,,0,0
HOEM,11/4/88,-16.28916667,2.499663462,-20,-12.92,12,,,,,0,0
HOEM,11/5/88,-14.525,3.158410129,-19.51,-9.89,12,,,,,0,0
HOEM,11/6/88,-13.27916667,3.609861388,-19.23,-8.77,12,,,,,0,0
HOEM,11/7/88,-12.52833333,1.249616911,-14.63,-10.71,12,,,,,0,0
HOEM,11/8/88,-12.03416667,2.389824864,-15.27,-7.83,12,,,,,0,0
HOEM,11/9/88,-11.6325,2.137365094,-14.89,-8.24,12,,,,,0,0
HOEM,11/10/88,-12.46333333,2.701041326,-16.21,-8.36,12,,,,,0,0
HOEM,11/11/88,-11.42916667,2.176220487,-15.02,-7.94,12,,,,,0,0
HOEM,11/12/88,-7.449166667,4.131874895,-13.31,-0.98,12,,,,,0,0
HOEM,11/13/88,-5.460833333,3.642213259,-11.43,-0.92,12,,,,,0,0
HOEM,11/14/88,-6.655833333,1.973434746,-9.51,-4.32,12,,,,,0,0
HOEM,11/15/88,-5.21,2.307076072,-8.14,-0.7,12,,,,,0,0
HOEM,11/16/88,-3.106666667,3.362662185,-7.72,3.86,12,,,,,0,0
HOEM,11/17/88,-2.37,3.394744601,-7.97,1.92,12,,,,,0,0
HOEM,11/18/88,-4.666666667,1.685701005,-8.1,-1.97,12,,,,,0,0
HOEM,11/19/88,-2.8975,2.412690407,-8.11,0.46,12,,,,,0,0
HOEM,11/20/88,-1.549166667,2.498550337,-4.85,2.78,12,,,,,0,0
HOEM,11/21/88,-2.9475,1.293579424,-4.8,-0.5,12,,,,,0,0
HOEM,11/22/88,-4.370833333,1.580503132,-6.47,-2.26,12,,,,,0,0
HOEM,11/23/88,-4.694166667,1.322411422,-6.81,-3.24,12,,,,,0,0
HOEM,11/24/88,-4.205,1.662973788,-6.04,-1.24,12,,,,,0,0
HOEM,11/25/88,-5.993333333,1.284207101,-7.27,-3.62,12,,,,,0,0
HOEM,11/26/88,-5.436666667,2.19962118,-8.22,-0.39,12,,,,,0,0
HOEM,11/27/88,-2.33,2.361936802,-6.9,0.58,12,,,,,0,0
HOEM,11/28/88,-1.3075,2.027170554,-4.29,3.39,12,,,,,0,0
HOEM,11/29/88,-4.170833333,1.202977052,-6.02,-2.71,12,,,,,0,0
HOEM,11/30/88,-4.1725,1.425706364,-6.21,-2.03,12,,,,,0,0
HOEM,12/1/88,-4.103333333,1.37601753,-5.75,-1.91,12,,,,,0,0
HOEM,12/2/88,-3.806666667,1.481708678,-6.07,-1.73,12,,,,,0,0
HOEM,12/3/88,-4.560833333,1.584271891,-6.71,-0.95,12,,,,,0,0
HOEM,12/4/88,-3.7775,1.020535733,-5.03,-1.95,12,,,,,0,0
HOEM,12/5/88,-3.366666667,1.305974616,-4.83,-0.45,12,,,,,0,0